[[{"header":{"parameterUnit":"m.s-1","parameterCategory":2,"la1":30.2991,"la2":30.254,"lo1":-89.0895,"lo2":-89.0444,"dy":0.0017,"dx":0.0017,"nx":28,"ny":28,"refTime":"2025-07-04T03:00:00:Z","depth":"0","parameterNumber":2,"parameterNumberName":"U-component_of_CURRENTS"},"data":[0,0,0,0,0,0,0,0,0,0,0,0,0,0,0,0,0,0,0,0,0,0,0,0,0,0,0,0,0,0,0,0,0,0,0,0,0,0,0,0,0,0,0,0,0,0,0,0,0,0,0,0,0,0,0,0,0,0,0.3097,0.3098,0,0.3208,0.321,0.3211,0.3211,0.3209,0.3207,0.3206,0.3309,0.3313,0.3317,0,0,0,0,0,0,0,0,0,0,0,0,0,0.2953,0.2956,0.3097,0.3098,0.3099,0.3208,0.321,0.3212,0.3211,0.3209,0.3207,0.3205,0.3307,0.3312,0.3318,0,0,0,0,0,0,0,0,0,0,0,0,0,0.3038,0.2957,0.3096,0.311,0.3112,0.3208,0.321,0.3212,0.3212,0.3209,0.3206,0.3204,0.3306,0.3312,0.3318,0.3409,0,0,0.3338,0.3341,0,0,0,0,0,0,0,0,0.3033,0.3043,0.3107,0.3109,0.3112,0.3191,0.3197,0.3277,0.3212,0.3177,0.3206,0.3203,0.3269,0.3278,0.3309,0.3414,0.3418,0.3339,0.3343,0.3345,0.3347,0,0,0,0,0,0,0,0.3027,0.3039,0.3143,0.3108,0.3111,0.3135,0.3143,0.3213,0.3237,0.3179,0.3179,0.3188,0.327,0.3302,0.3311,0.342,0.3339,0.3344,0.3348,0.3351,0.3611,0.3614,0,0,0,0,0,0,0.3008,0.3033,0.314,0.3147,0.3062,0.3139,0.3149,0.317,0.3237,0.3244,0.319,0.3188,0.3293,0.3303,0.3314,0.345,0.3345,0.3351,0.3355,0.3608,0.3612,0.3615,0,0,0,0,0,0,0.3005,0.3017,0.3135,0.3089,0.3106,0.3143,0.3168,0.3174,0.3199,0.3245,0.3251,0.3208,0.3291,0.3305,0.3397,0.3453,0.3354,0.336,0.3604,0.3609,0.3613,0.3706,0,0,0,0,0,0,0.3,0.3016,0.3029,0.3089,0.3107,0.3223,0.317,0.3178,0.3208,0.3206,0.3263,0.327,0.329,0.3387,0.3403,0.346,0.3365,0.3601,0.3607,0.3612,0.3699,0.3714,0.3726,0,0,0,0,0,0.2995,0.3038,0.3029,0.3042,0.3124,0.3226,0.3241,0.3258,0.3211,0.3263,0.3286,0.3268,0.3433,0.3396,0.3414,0.3473,0.3598,0.3605,0.3611,0.3694,0.3711,0.3725,0,0,0,0,0,0,0.2999,0.3044,0.3035,0.3091,0.316,0.3225,0.3269,0.3264,0.3323,0.331,0.3323,0.3337,0.3436,0.3447,0.3405,0.3564,0.3508,0.3518,0.3564,0.358,0.3593,0.3579,0.3371,0,0,0,0,0,0.3001,0.3035,0.3094,0.3144,0.3178,0.3217,0.3253,0.3271,0.3324,0.3345,0.338,0.342,0.3485,0.3521,0.3584,0.3682,0.3685,0.3727,0.374,0.3751,0.3752,0.3838,0.3859,0.3637,0.3637,0.3637,0,0,0.3017,0.3044,0.3064,0.3145,0.3192,0.3275,0.3235,0.3312,0.337,0.3351,0.3444,0.3477,0.3522,0.3631,0.3675,0.3643,0.3813,0.376,0.3769,0.3764,0.3848,0.3869,0.3888,0.3642,0.3641,0.364,0,0,0.3085,0.3094,0.3153,0.3212,0.3286,0.3323,0.3342,0.3418,0.3443,0.3546,0.3534,0.3597,0.3703,0.3745,0.3775,0.39,0.3882,0.3916,0.3974,0.4059,0.4077,0.4094,0.4106,0.4123,0.392,0.392,0.392,0,0.3101,0.3177,0.3194,0.3275,0.332,0.3343,0.3429,0.3483,0.3575,0.3596,0.359,0.3719,0.376,0.3861,0.3908,0.393,0.395,0.3909,0.4075,0.4091,0.4107,0.4116,0.4133,0.3925,0.3924,0.3924,0.3923,0,0.322,0.328,0.3331,0.342,0.3478,0.3567,0.3625,0.3681,0.3694,0.373,0.3827,0.3888,0.3945,0.3983,0.3992,0.4114,0.4083,0.4083,0.403,0.4134,0.4137,0.4154,0.3933,0.3931,0.3929,0.3928,0,0,0.3245,0.3386,0.34,0.345,0.3554,0.3616,0.3708,0.3798,0.3825,0.3917,0.3969,0.4091,0.4075,0.4109,0.4122,0.4205,0.433,0.4196,0.4198,0.4198,0.4478,0.4305,0.4305,0.437,0.4374,0.4377,0.4429,0,0.3333,0.3504,0.3534,0.3669,0.3757,0.3779,0.3852,0.3916,0.396,0.4022,0.407,0.4134,0.4136,0.4155,0.4246,0.4296,0.4382,0.4313,0.4386,0.4386,0.4213,0.4322,0.4061,0.4074,0.4445,0.4447,0.4449,0,0.3419,0.3523,0.368,0.3772,0.3804,0.3866,0.3934,0.4005,0.4077,0.4101,0.4158,0.4178,0.4273,0.4276,0.4421,0.4377,0.4447,0.4495,0.4499,0.4313,0.4245,0.4036,0.4089,0.3937,0.4474,0.4472,0.447,0,0.3429,0.3595,0.3715,0.3762,0.3888,0.3914,0.396,0.4023,0.4048,0.4135,0.4145,0.4252,0.4276,0.4406,0.4461,0.4468,0.4614,0.4626,0.4538,0.4523,0.43,0.4258,0.4202,0.4782,0.4782,0.4782,0.4782,0,0.3498,0.3579,0.3723,0.3791,0.3863,0.393,0.3974,0.4022,0.4073,0.4097,0.4167,0.4195,0.4322,0.439,0.4486,0.4516,0.4626,0.4558,0.4544,0.4319,0.4281,0.4134,0.4115,0.4784,0.4784,0.4783,0.4783,0,0.3483,0.3601,0.3712,0.3847,0.3872,0.3911,0.395,0.3984,0.4026,0.4059,0.4078,0.4155,0.4226,0.4315,0.4486,0.4489,0.4426,0.4579,0.4257,0.4204,0.3944,0.394,0.3785,0.3704,0.4486,0.4482,0.4479,0,0.3501,0.3575,0.3715,0.3761,0.3812,0.3869,0.3899,0.3952,0.3973,0.4026,0.4042,0.4098,0.4114,0.4221,0.4247,0.4319,0.4286,0.413,0.4108,0.3893,0.3883,0.3788,0.3728,0.385,0.3842,0.3835,0.383,0,0.3515,0.3555,0.3654,0.374,0.3786,0.3813,0.3858,0.3853,0.3907,0.3908,0.3913,0.3924,0.3962,0.3873,0.3917,0.3956,0.3862,0.3995,0.3888,0.3471,0.3253,0.3176,0.3815,0.3771,0.3777,0.3781,0.3785,0.3787,0.3495,0.354,0.3658,0.3699,0.3751,0.3743,0.3704,0.3729,0.3703,0.3637,0.3746,0.3656,0.3572,0.3567,0.3585,0.3336,0.3482,0.3229,0.327,0.3213,0.304,0.3504,0.3371,0.3375,0.3378,0.338,0.3383,0,0.3471,0.3537,0.3605,0.3656,0.3653,0.3686,0.3662,0.3568,0.3471,0.3444,0.3388,0.3187,0.3031,0.2978,0.2756,0.263,0.2579,0.2542,0.2372,0.2383,0.2876,0.2747,0.233,0.233,0.233,0.233,0.233,0.233,0.3483,0.3537,0.3555,0.3535,0.3547,0.3439,0.3379,0.3234,0.3153,0.289,0.272,0.2697,0.2572,0.2335,0.2099,0.2061,0.1972,0.1798,0.1938,0.2279,0.2346,0.241,0.2282,0.1774,0.1773,0.128,0.1276,0.1273]},{"header":{"parameterUnit":"m.s-1","parameterCategory":2,"la1":30.2991,"la2":30.254,"lo1":-89.0895,"lo2":-89.0444,"dy":0.0017,"dx":0.0017,"nx":28,"ny":28,"refTime":"2025-07-04T03:00:00:Z","depth":"0","parameterNumber":3,"parameterNumberName":"V-component_of_CURRENTS"},"data":[0,0,0,0,0,0,0,0,0,0,0,0,0,0,0,0,0,0,0,0,0,0,0,0,0,0,0,0,0,0,0,0,0,0,0,0,0,0,0,0,0,0,0,0,0,0,0,0,0,0,0,0,0,0,0,0,0,0,0.0195,0.0195,0,0.0196,0.0196,0.0196,0.0184,0.0183,0.0183,0.0183,0.018,0.018,0.018,0,0,0,0,0,0,0,0,0,0,0,0,0,0.0166,0.0167,0.0195,0.0195,0.0195,0.0196,0.0196,0.0196,0.0184,0.0183,0.0183,0.0183,0.0179,0.018,0.018,0,0,0,0,0,0,0,0,0,0,0,0,0,0.0174,0.0167,0.0195,0.0189,0.0188,0.0196,0.0196,0.0196,0.0184,0.0183,0.0183,0.0182,0.0179,0.018,0.018,0.0193,0,0,0.0181,0.0181,0,0,0,0,0,0,0,0,0.0174,0.0175,0.019,0.0189,0.0189,0.0189,0.0185,0.0195,0.0184,0.0186,0.0183,0.0182,0.0183,0.0183,0.0184,0.0193,0.0193,0.0181,0.0182,0.0182,0.0182,0,0,0,0,0,0,0,0.0173,0.0175,0.0196,0.019,0.0189,0.0181,0.0181,0.0187,0.0187,0.0186,0.0185,0.0185,0.0182,0.0184,0.0184,0.0193,0.0181,0.0182,0.0182,0.0182,0.0279,0.0282,0,0,0,0,0,0,0.0175,0.0175,0.0196,0.0196,0.018,0.0182,0.0182,0.019,0.0187,0.0186,0.0185,0.0184,0.0184,0.0184,0.0184,0.0235,0.0182,0.0182,0.0182,0.0277,0.028,0.0283,0,0,0,0,0,0,0.0174,0.0177,0.0196,0.0185,0.0186,0.0183,0.0191,0.019,0.019,0.0187,0.0186,0.0186,0.0183,0.0184,0.02,0.0233,0.0182,0.0183,0.0274,0.0278,0.0281,0.0313,0,0,0,0,0,0,0.0173,0.0177,0.0183,0.0185,0.0187,0.0197,0.0192,0.0191,0.0191,0.019,0.0187,0.0187,0.0183,0.02,0.0201,0.0232,0.0183,0.0271,0.0276,0.028,0.0309,0.0317,0.0324,0,0,0,0,0,0.0172,0.0185,0.0183,0.0186,0.0196,0.0197,0.0198,0.0193,0.0192,0.0191,0.0201,0.0187,0.023,0.0202,0.0202,0.0235,0.0269,0.0275,0.028,0.0306,0.0316,0.0324,0,0,0,0,0,0,0.0173,0.0184,0.0183,0.0198,0.0195,0.0195,0.0198,0.0195,0.0203,0.0204,0.0202,0.0202,0.0233,0.0235,0.0204,0.0282,0.0253,0.0259,0.0273,0.0282,0.029,0.0316,0.0183,0,0,0,0,0,0.0177,0.0191,0.0192,0.0202,0.0203,0.0201,0.0202,0.0198,0.0204,0.0206,0.0206,0.0226,0.0258,0.0268,0.0284,0.0315,0.0343,0.0345,0.0353,0.0359,0.0385,0.0508,0.0529,0.03,0.03,0.03,0,0,0.0178,0.0188,0.0194,0.0203,0.0204,0.0206,0.02,0.0202,0.0211,0.0206,0.0221,0.0242,0.0272,0.0312,0.0328,0.0315,0.0423,0.0366,0.037,0.0394,0.0516,0.0538,0.0558,0.0304,0.0303,0.0302,0,0,0.0181,0.0198,0.0203,0.0205,0.0207,0.0211,0.0211,0.0212,0.022,0.0234,0.0254,0.031,0.0314,0.0373,0.0398,0.0464,0.0457,0.0456,0.0516,0.0634,0.0655,0.0673,0.066,0.0677,0.0464,0.0464,0.0464,0,0.018,0.0191,0.0203,0.0205,0.0213,0.0214,0.0217,0.0229,0.0235,0.0273,0.024,0.0351,0.0359,0.0473,0.049,0.0484,0.0502,0.0469,0.0645,0.0664,0.0682,0.0666,0.0684,0.0466,0.0466,0.0465,0.0465,0,0.0182,0.019,0.0195,0.0205,0.0215,0.022,0.0236,0.0258,0.0268,0.0296,0.039,0.0427,0.0507,0.0518,0.0512,0.0658,0.0606,0.0635,0.0617,0.0708,0.0683,0.0701,0.0469,0.0468,0.0468,0.0467,0,0,0.0185,0.0194,0.0196,0.021,0.0218,0.0236,0.0266,0.0319,0.0386,0.0404,0.051,0.0571,0.0615,0.0652,0.068,0.0774,0.0877,0.0751,0.0756,0.0728,0.1047,0.0942,0.0951,0.0939,0.0944,0.0949,0.0948,0,0.0182,0.0192,0.0198,0.0222,0.0234,0.0263,0.0306,0.0363,0.0416,0.0517,0.0604,0.0699,0.0659,0.0718,0.0809,0.0888,0.0941,0.0868,0.0974,0.0975,0.0868,0.0978,0.0919,0.0912,0.0967,0.097,0.0972,0,0.0183,0.0194,0.0209,0.0263,0.0275,0.0296,0.0408,0.0446,0.0584,0.0635,0.0754,0.0814,0.0956,0.0916,0.1077,0.1029,0.1035,0.107,0.1072,0.0991,0.0911,0.085,0.0944,0.086,0.1001,0.0998,0.0996,0,0.02,0.0214,0.0235,0.0245,0.0296,0.0336,0.0378,0.0493,0.0573,0.0732,0.0822,0.0971,0.107,0.1149,0.1173,0.1149,0.1325,0.1308,0.1199,0.1185,0.1168,0.1146,0.12,0.1423,0.1423,0.1423,0.1423,0,0.021,0.0233,0.0248,0.0266,0.034,0.0361,0.0477,0.0546,0.0682,0.0819,0.0893,0.1035,0.1147,0.1241,0.1237,0.1263,0.1372,0.1232,0.1222,0.1164,0.1143,0.1093,0.1048,0.1423,0.1423,0.1423,0.1423,0,0.024,0.0234,0.0278,0.0325,0.0349,0.0411,0.0523,0.0623,0.072,0.0907,0.0964,0.1125,0.1238,0.1276,0.1404,0.134,0.1322,0.1342,0.1188,0.1161,0.0967,0.0924,0.098,0.0965,0.124,0.1238,0.1237,0,0.026,0.0274,0.0331,0.0377,0.0402,0.0485,0.0561,0.0648,0.0753,0.0967,0.1072,0.1214,0.1337,0.141,0.1357,0.1313,0.1263,0.1178,0.1149,0.0972,0.0921,0.0899,0.0882,0.1095,0.1092,0.109,0.1088,0,0.0314,0.0328,0.0372,0.0451,0.0522,0.0611,0.071,0.0792,0.0922,0.1064,0.1251,0.1359,0.14,0.1379,0.1273,0.1218,0.1102,0.1127,0.1061,0.0914,0.0791,0.0763,0.0974,0.1069,0.1071,0.1072,0.1073,0.1074,0.0372,0.0416,0.0465,0.0549,0.0629,0.073,0.0812,0.0926,0.1082,0.1288,0.1362,0.1525,0.1412,0.1288,0.1171,0.0891,0.0967,0.0816,0.0798,0.0805,0.0762,0.085,0.087,0.0871,0.0871,0.0872,0.0873,0,0.0442,0.0482,0.0562,0.0656,0.0752,0.0774,0.0915,0.1004,0.1178,0.1359,0.1504,0.1529,0.1359,0.1157,0.0793,0.0613,0.0584,0.0526,0.0518,0.0537,0.0721,0.0683,0.0525,0.0525,0.0526,0.0526,0.0526,0.0526,0.0486,0.056,0.059,0.0739,0.081,0.0925,0.1001,0.1134,0.127,0.1452,0.1546,0.1626,0.1448,0.0838,0.0442,0.0362,0.031,0.025,0.0273,0.0393,0.042,0.0445,0.0402,0.0189,0.0188,0.0104,0.0102,0.0101]}],[{"header":{"parameterUnit":"m.s-1","parameterCategory":2,"la1":30.2991,"la2":30.254,"lo1":-89.0895,"lo2":-89.0444,"dy":0.0017,"dx":0.0017,"nx":28,"ny":28,"refTime":"2025-07-04T03:00:00:Z","depth":"2","parameterNumber":2,"parameterNumberName":"U-component_of_CURRENTS"},"data":[0,0,0,0,0,0,0,0,0,0,0,0,0,0,0,0,0,0,0,0,0,0,0,0,0,0,0,0,0,0,0,0,0,0,0,0,0,0,0,0,0,0,0,0,0,0,0,0,0,0,0,0,0,0,0,0,0,0,0.1836,0.1837,0,0.2003,0.2006,0.2009,0.2181,0.2182,0.2183,0.2184,0.2262,0.2263,0.2265,0,0,0,0,0,0,0,0,0,0,0,0,0,0.1878,0.1876,0.1836,0.1837,0.1837,0.2002,0.2006,0.201,0.2181,0.2182,0.2183,0.2184,0.2262,0.2263,0.2265,0,0,0,0,0,0,0,0,0,0,0,0,0,0.1948,0.1876,0.1836,0.1931,0.194,0.2001,0.2006,0.2011,0.2181,0.2182,0.2183,0.2185,0.2261,0.2263,0.2265,0.2249,0,0,0.2271,0.2271,0,0,0,0,0,0,0,0,0.1944,0.1948,0.1916,0.1924,0.1934,0.2058,0.2049,0.2081,0.218,0.2106,0.2184,0.2185,0.2174,0.2183,0.2236,0.2253,0.2256,0.2271,0.2272,0.2273,0.2273,0,0,0,0,0,0,0,0.1938,0.1943,0.1918,0.1916,0.1927,0.2036,0.2048,0.2059,0.2141,0.2113,0.2122,0.2114,0.2181,0.2234,0.2238,0.2258,0.2271,0.2272,0.2274,0.2274,0.2352,0.2353,0,0,0,0,0,0,0.1873,0.1937,0.1913,0.1922,0.1925,0.2032,0.2046,0.203,0.2143,0.2158,0.2113,0.2121,0.223,0.2236,0.2241,0.231,0.2273,0.2274,0.2276,0.2351,0.2352,0.2353,0,0,0,0,0,0,0.1873,0.1868,0.1906,0.1922,0.1932,0.2027,0.201,0.2032,0.2104,0.2141,0.2158,0.216,0.2231,0.2239,0.2269,0.231,0.2275,0.2277,0.235,0.2351,0.2352,0.2393,0,0,0,0,0,0,0.1873,0.1868,0.1874,0.1916,0.1928,0.1978,0.2008,0.2034,0.2088,0.2102,0.2186,0.2195,0.2233,0.2266,0.227,0.2312,0.2278,0.2349,0.235,0.2352,0.2391,0.2396,0.24,0,0,0,0,0,0.1874,0.1875,0.1873,0.1872,0.1919,0.1978,0.1999,0.2082,0.2088,0.2147,0.2177,0.2194,0.2281,0.2267,0.2273,0.2316,0.2348,0.235,0.2352,0.2388,0.2395,0.24,0,0,0,0,0,0,0.1906,0.1892,0.1891,0.1889,0.1937,0.2002,0.2054,0.2079,0.2155,0.2156,0.2194,0.2206,0.2257,0.2264,0.2248,0.2343,0.2321,0.2325,0.2347,0.2353,0.2358,0.2388,0.228,0,0,0,0,0,0.1899,0.1893,0.1909,0.1911,0.193,0.1986,0.2024,0.2063,0.2107,0.2147,0.2189,0.2225,0.2267,0.229,0.233,0.2361,0.2401,0.2395,0.24,0.2404,0.2431,0.2527,0.2545,0.236,0.236,0.236,0,0,0.1905,0.1896,0.1893,0.1917,0.1959,0.1988,0.2021,0.207,0.2105,0.2131,0.2202,0.224,0.2277,0.234,0.2362,0.2352,0.2472,0.2406,0.241,0.2436,0.2532,0.255,0.2567,0.2361,0.2361,0.2361,0,0,0.1907,0.1909,0.191,0.1941,0.1975,0.2009,0.2013,0.2074,0.2133,0.2168,0.2212,0.2274,0.2311,0.2386,0.2412,0.2455,0.2493,0.246,0.2513,0.2606,0.2623,0.2638,0.2692,0.2712,0.2464,0.2464,0.2464,0,0.1924,0.1916,0.1932,0.1943,0.1975,0.2005,0.2036,0.2085,0.2149,0.2201,0.2188,0.2309,0.2342,0.2446,0.2481,0.2472,0.2517,0.2489,0.2615,0.2631,0.2647,0.2698,0.272,0.2466,0.2466,0.2465,0.2465,0,0.1905,0.1934,0.1944,0.1956,0.1996,0.2036,0.207,0.2129,0.216,0.2207,0.2313,0.2368,0.2453,0.2473,0.2492,0.2627,0.262,0.261,0.2605,0.2668,0.2717,0.2739,0.2469,0.2468,0.2468,0.2467,0,0,0.1901,0.1928,0.1946,0.1972,0.2016,0.2044,0.2102,0.2193,0.2244,0.2304,0.24,0.2491,0.2537,0.2573,0.2619,0.2707,0.2846,0.2714,0.2718,0.2775,0.3038,0.2738,0.2733,0.2866,0.2871,0.2874,0.3022,0,0.1917,0.1935,0.1956,0.2014,0.2044,0.2101,0.2155,0.2225,0.2292,0.2386,0.2471,0.2561,0.2566,0.2624,0.2714,0.2833,0.2909,0.2806,0.2963,0.2967,0.27,0.275,0.2561,0.2652,0.3044,0.3047,0.305,0,0.191,0.194,0.1982,0.2065,0.2087,0.2117,0.2235,0.2287,0.2412,0.2469,0.2573,0.2631,0.2794,0.2761,0.2988,0.2926,0.2992,0.3055,0.3062,0.2789,0.2707,0.2656,0.2677,0.3087,0.3084,0.3081,0.3078,0,0.1897,0.1974,0.2013,0.2032,0.2108,0.2165,0.222,0.2327,0.2404,0.2541,0.2608,0.2762,0.2861,0.2986,0.3091,0.3075,0.3302,0.3286,0.307,0.305,0.2921,0.2877,0.343,0.343,0.343,0.343,0.3429,0,0.1897,0.1944,0.2013,0.203,0.2124,0.2163,0.2271,0.2347,0.2464,0.2546,0.2656,0.2739,0.2931,0.3055,0.3138,0.3148,0.3336,0.3092,0.3072,0.2918,0.2874,0.3277,0.3257,0.3435,0.3434,0.3433,0.3432,0,0.1876,0.19,0.1975,0.2075,0.2112,0.2178,0.2304,0.2363,0.2475,0.259,0.2641,0.2795,0.2916,0.3043,0.3243,0.3172,0.3236,0.3185,0.295,0.2893,0.292,0.2901,0.2984,0.2975,0.2967,0.296,0.2955,0,0.1869,0.1898,0.2014,0.2061,0.2115,0.2214,0.2269,0.2373,0.2415,0.2593,0.2623,0.2779,0.281,0.2932,0.2891,0.2921,0.3074,0.2703,0.2596,0.2904,0.2879,0.2872,0.2864,0.248,0.2471,0.2464,0.2458,0,0.1912,0.1946,0.1997,0.2078,0.2141,0.2215,0.2283,0.2301,0.2396,0.2483,0.2533,0.2579,0.2621,0.2515,0.2489,0.2483,0.2668,0.2536,0.3018,0.254,0.2418,0.2395,0.2408,0.2393,0.2399,0.2404,0.2408,0.241,0.1963,0.2001,0.2041,0.2079,0.2161,0.2158,0.2183,0.2187,0.2217,0.2239,0.2337,0.2308,0.2303,0.2104,0.2051,0.2001,0.2165,0.211,0.2141,0.2178,0.2011,0.1872,0.1716,0.1719,0.1721,0.1723,0.1725,0,0.1996,0.1981,0.2036,0.2055,0.2079,0.2138,0.2149,0.209,0.2031,0.2018,0.2016,0.1799,0.1706,0.1741,0.1539,0.1454,0.1543,0.1417,0.1579,0.1641,0.1697,0.1514,0.1084,0.1082,0.108,0.1078,0,0,0.2,0.1987,0.194,0.1914,0.1961,0.1947,0.1932,0.1843,0.1784,0.1612,0.155,0.1615,0.1647,0.1346,0.1287,0.1169,0.1408,0.1114,0.1628,0.1882,0.1936,0.2086,0.1867,0,0,0,0,0]},{"header":{"parameterUnit":"m.s-1","parameterCategory":2,"la1":30.2991,"la2":30.254,"lo1":-89.0895,"lo2":-89.0444,"dy":0.0017,"dx":0.0017,"nx":28,"ny":28,"refTime":"2025-07-04T03:00:00:Z","depth":"2","parameterNumber":3,"parameterNumberName":"V-component_of_CURRENTS"},"data":[0,0,0,0,0,0,0,0,0,0,0,0,0,0,0,0,0,0,0,0,0,0,0,0,0,0,0,0,0,0,0,0,0,0,0,0,0,0,0,0,0,0,0,0,0,0,0,0,0,0,0,0,0,0,0,0,0,0,0.0007,0.0007,0,-0.0007,-0.0007,-0.0007,-0.0034,-0.0035,-0.0035,-0.0035,-0.01,-0.0101,-0.0103,0,0,0,0,0,0,0,0,0,0,0,0,0,-0.001,-0.0009,0.0007,0.0007,0.0007,-0.0007,-0.0007,-0.0007,-0.0034,-0.0035,-0.0035,-0.0036,-0.0099,-0.0101,-0.0103,0,0,0,0,0,0,0,0,0,0,0,0,0,-0.0013,-0.0009,0.0007,-0.0007,-0.0008,-0.0007,-0.0007,-0.0008,-0.0034,-0.0035,-0.0035,-0.0036,-0.0099,-0.0101,-0.0103,-0.0106,0,0,-0.0109,-0.011,0,0,0,0,0,0,0,0,-0.0012,-0.0012,-0.0005,-0.0006,-0.0007,-0.0018,-0.0036,-0.0042,-0.0034,-0.0026,-0.0035,-0.0036,-0.0075,-0.0079,-0.0083,-0.0109,-0.0111,-0.011,-0.0111,-0.0112,-0.0112,0,0,0,0,0,0,0,-0.0012,-0.0012,-0.0001,-0.0005,-0.0006,-0.0018,-0.0019,-0.0038,-0.005,-0.0027,-0.0029,-0.0027,-0.0077,-0.0081,-0.0085,-0.0112,-0.011,-0.0111,-0.0113,-0.0113,-0.0146,-0.0146,0,0,0,0,0,0,-0.0005,-0.0012,-0.0,-0.0001,-0.0009,-0.0017,-0.0019,-0.0015,-0.0049,-0.0054,-0.0026,-0.0028,-0.0077,-0.0082,-0.0087,-0.0089,-0.0112,-0.0114,-0.0115,-0.0147,-0.0146,-0.0146,0,0,0,0,0,0,-0.0005,-0.0003,0.0,-0.0005,-0.0005,-0.0016,-0.0013,-0.0015,-0.0024,-0.0047,-0.0054,-0.0032,-0.0078,-0.0084,-0.0093,-0.0092,-0.0115,-0.0117,-0.0147,-0.0147,-0.0146,-0.0095,0,0,0,0,0,0,-0.0005,-0.0003,0.0001,-0.0004,-0.0005,-0.0005,-0.0012,-0.0015,-0.002,-0.0023,-0.0054,-0.006,-0.0079,-0.009,-0.0095,-0.0095,-0.0118,-0.0148,-0.0147,-0.0146,-0.0097,-0.0093,-0.0089,0,0,0,0,0,-0.0006,-0.0,0.0001,0.0002,0.0002,-0.0005,-0.0007,-0.0018,-0.002,-0.0026,-0.0034,-0.0059,-0.009,-0.0091,-0.0098,-0.0098,-0.0148,-0.0147,-0.0146,-0.0099,-0.0094,-0.0089,0,0,0,0,0,0,-0.0008,-0.0002,-0.0001,0.0005,-0.0001,-0.0009,-0.0011,-0.0016,-0.0027,-0.0027,-0.005,-0.0057,-0.0066,-0.0087,-0.0087,-0.0106,-0.0125,-0.0126,-0.0087,-0.0082,-0.0078,-0.0056,-0.012,0,0,0,0,0,-0.0003,0.0003,0.0002,0.0007,0.0006,-0.0001,-0.0004,-0.0011,-0.0019,-0.0024,-0.0043,-0.0059,-0.0067,-0.0077,-0.0094,-0.0101,-0.0096,-0.0108,-0.0104,-0.01,-0.0086,-0.0065,-0.0057,-0.0143,-0.0143,-0.0143,0,0,-0.0003,0.0002,0.0005,0.0007,0.0004,0.0009,-0.0005,-0.0009,-0.0002,-0.0029,-0.003,-0.0047,-0.0065,-0.007,-0.0077,-0.0088,-0.0074,-0.0099,-0.0095,-0.0083,-0.0063,-0.0054,-0.0047,-0.0142,-0.0143,-0.0143,0,0,0.0004,0.0007,0.0015,0.0014,0.0014,0.0013,0.0013,0.0004,0.0,-0.0002,-0.0012,-0.0015,-0.0047,-0.0044,-0.0049,-0.0031,-0.0051,-0.0054,-0.0016,0.0004,0.0012,0.0019,0.0038,0.0046,-0.0053,-0.0053,-0.0053,0,0.0005,0.0019,0.0014,0.0022,0.0032,0.0018,0.0032,0.0027,0.0016,0.0032,0.0,0.0,-0.0026,0.0002,-0.0001,-0.002,-0.0016,-0.0032,0.0012,0.0019,0.0025,0.0042,0.0051,-0.005,-0.005,-0.0051,-0.0051,0,0.0023,0.003,0.0035,0.0049,0.0055,0.0061,0.0063,0.007,0.0064,0.0066,0.008,0.0054,0.0057,0.0041,0.002,0.0051,0.0038,0.0017,0.0004,0.0037,0.0053,0.006,-0.0046,-0.0047,-0.0048,-0.0049,0,0,0.0035,0.0046,0.0047,0.0068,0.0073,0.0088,0.0108,0.0135,0.0172,0.0143,0.0186,0.0159,0.0144,0.0138,0.0112,0.0121,0.0155,0.0082,0.0082,0.011,0.02,0.0146,0.015,0.0139,0.014,0.0141,0.0194,0,0.0052,0.008,0.0081,0.0117,0.0137,0.0147,0.0175,0.02,0.0209,0.0241,0.0228,0.0238,0.018,0.0178,0.018,0.0171,0.0178,0.0143,0.0156,0.0157,0.0113,0.0158,0.0131,0.0171,0.0201,0.0203,0.0204,0,0.0072,0.0094,0.0125,0.0177,0.0189,0.0206,0.0278,0.0297,0.0338,0.0345,0.0356,0.0338,0.0352,0.0283,0.0296,0.0274,0.0237,0.0222,0.0223,0.0164,0.0118,0.0141,0.0184,0.0217,0.0216,0.0215,0.0214,0,0.0099,0.0132,0.0165,0.0177,0.0223,0.0252,0.0278,0.0328,0.0369,0.0401,0.0434,0.0441,0.0449,0.0418,0.0374,0.0333,0.0393,0.0333,0.0257,0.0253,0.023,0.022,0.0338,0.0338,0.0338,0.0338,0.0337,0,0.0127,0.0155,0.0179,0.0199,0.0269,0.0279,0.0353,0.0385,0.0434,0.0512,0.0474,0.0546,0.048,0.0501,0.0433,0.0389,0.0441,0.0282,0.0269,0.0244,0.0236,0.0268,0.0259,0.034,0.0339,0.0339,0.0338,0,0.0147,0.0156,0.0209,0.0258,0.0279,0.0326,0.0396,0.0465,0.0481,0.0581,0.059,0.0637,0.0664,0.0607,0.0584,0.0473,0.0431,0.0395,0.0368,0.0348,0.0256,0.025,0.0306,0.0304,0.0303,0.0302,0.0301,0,0.0156,0.0177,0.0251,0.0304,0.0324,0.0386,0.0453,0.0487,0.0568,0.0663,0.074,0.0771,0.0829,0.0768,0.0601,0.048,0.0475,0.0344,0.0241,0.0275,0.0257,0.0251,0.0246,0.0238,0.0236,0.0235,0.0235,0,0.0186,0.0208,0.0268,0.0367,0.0441,0.0527,0.0613,0.0687,0.0756,0.0831,0.0965,0.0999,0.091,0.0788,0.058,0.048,0.0352,0.0314,0.0403,0.0231,0.021,0.0191,0.0189,0.0226,0.0227,0.0227,0.0228,0.0228,0.0222,0.0275,0.0356,0.0468,0.055,0.067,0.0738,0.086,0.0983,0.1094,0.1126,0.1138,0.096,0.0675,0.0515,0.0297,0.0292,0.0185,0.019,0.0195,0.0159,0.0135,0.0131,0.0131,0.0131,0.0132,0.0132,0,0.0288,0.0358,0.0457,0.0586,0.0682,0.0702,0.0857,0.0936,0.1096,0.1174,0.1236,0.1037,0.0883,0.0694,0.0339,0.0132,0.0116,0.0087,0.011,0.0119,0.0127,0.0088,0.0041,0.0041,0.004,0.004,0,0,0.0333,0.0447,0.0512,0.0687,0.0752,0.0848,0.0926,0.1059,0.1134,0.1211,0.1181,0.1153,0.0905,0.0645,0.0399,0.0217,0.0209,0.0176,0.0258,0.032,0.033,0.0183,0.0133,0,0,0,0,0]}],[{"header":{"parameterUnit":"m.s-1","parameterCategory":2,"la1":30.2991,"la2":30.254,"lo1":-89.0895,"lo2":-89.0444,"dy":0.0017,"dx":0.0017,"nx":28,"ny":28,"refTime":"2025-07-04T03:00:00:Z","depth":"4","parameterNumber":2,"parameterNumberName":"U-component_of_CURRENTS"},"data":[0,0,0,0,0,0,0,0,0,0,0,0,0,0,0,0,0,0,0,0,0,0,0,0,0,0,0,0,0,0,0,0,0,0,0,0,0,0,0,0,0,0,0,0,0,0,0,0,0,0,0,0,0,0,0,0,0,0,0.0735,0.0734,0,0.0622,0.062,0.0618,0.0533,0.0533,0.0533,0.0533,0.0415,0.0412,0.0409,0,0,0,0,0,0,0,0,0,0,0,0,0,0.0827,0.0825,0.0735,0.0734,0.0734,0.0623,0.062,0.0618,0.0533,0.0533,0.0533,0.0534,0.0416,0.0412,0.0408,0,0,0,0,0,0,0,0,0,0,0,0,0,0.0749,0.0824,0.0735,0.0685,0.068,0.0623,0.062,0.0617,0.0533,0.0533,0.0533,0.0534,0.0417,0.0412,0.0408,0.0376,0,0,0.0393,0.0391,0,0,0,0,0,0,0,0,0.0754,0.0745,0.0693,0.0689,0.0683,0.06,0.061,0.0539,0.0533,0.0579,0.0533,0.0534,0.0482,0.0472,0.0437,0.037,0.0365,0.0392,0.039,0.0387,0.0386,0,0,0,0,0,0,0,0.0759,0.0749,0.0681,0.0693,0.0687,0.0652,0.064,0.0595,0.0524,0.0575,0.0571,0.0573,0.0478,0.0442,0.0434,0.0363,0.0393,0.0388,0.0385,0.0383,0.0344,0.0346,0,0,0,0,0,0,0.0794,0.0754,0.0685,0.0679,0.073,0.0651,0.0638,0.0619,0.0525,0.0513,0.0573,0.057,0.045,0.044,0.043,0.0449,0.0387,0.0383,0.038,0.0342,0.0345,0.0347,0,0,0,0,0,0,0.0796,0.0788,0.0689,0.0722,0.0709,0.0651,0.063,0.0617,0.0602,0.0525,0.0511,0.0576,0.045,0.0437,0.038,0.0441,0.0381,0.0376,0.034,0.0343,0.0346,0.0447,0,0,0,0,0,0,0.0798,0.0788,0.0792,0.0724,0.0709,0.0644,0.063,0.0615,0.0607,0.0602,0.0523,0.051,0.0449,0.0388,0.0376,0.0434,0.0373,0.0338,0.0341,0.0345,0.0441,0.0453,0.0462,0,0,0,0,0,0.0802,0.0784,0.0792,0.0785,0.0712,0.0645,0.0631,0.0585,0.0608,0.0578,0.0533,0.0514,0.0404,0.0383,0.0369,0.0427,0.0336,0.034,0.0345,0.0436,0.045,0.0462,0,0,0,0,0,0,0.0809,0.0773,0.078,0.075,0.0709,0.0634,0.061,0.0608,0.055,0.0559,0.0499,0.048,0.0465,0.0428,0.0408,0.0431,0.0384,0.0385,0.0459,0.0471,0.0482,0.0508,0.0369,0,0,0,0,0,0.0824,0.081,0.0766,0.0745,0.0727,0.0687,0.0666,0.0643,0.0589,0.0565,0.0521,0.0491,0.0469,0.0453,0.0407,0.04,0.0369,0.0442,0.0453,0.0462,0.0477,0.05,0.0514,0.036,0.036,0.036,0,0,0.083,0.0806,0.0803,0.075,0.0715,0.0665,0.0669,0.0636,0.0614,0.0563,0.0521,0.0513,0.0472,0.0458,0.0455,0.0436,0.0479,0.0468,0.0476,0.0485,0.0506,0.0521,0.0534,0.0363,0.0363,0.0362,0,0,0.0797,0.0805,0.0769,0.0735,0.0699,0.067,0.0676,0.0624,0.0619,0.0585,0.0569,0.0593,0.0528,0.0527,0.0519,0.0567,0.053,0.0581,0.0659,0.0683,0.0695,0.0707,0.0638,0.0643,0.0595,0.0595,0.0595,0,0.0807,0.0746,0.0747,0.0692,0.0678,0.068,0.0637,0.0618,0.0565,0.0599,0.058,0.0598,0.0565,0.0605,0.0627,0.0595,0.0571,0.0611,0.0697,0.0708,0.0718,0.0645,0.0649,0.06,0.06,0.0599,0.0599,0,0.0727,0.0689,0.066,0.0605,0.0597,0.0553,0.0552,0.0567,0.06,0.0612,0.0675,0.0649,0.0682,0.0697,0.0668,0.0757,0.07,0.0701,0.0665,0.0739,0.0657,0.0659,0.0608,0.0606,0.0605,0.0603,0,0,0.0715,0.0621,0.0614,0.06,0.0554,0.055,0.0551,0.0572,0.0636,0.0643,0.0714,0.074,0.0808,0.0806,0.082,0.0853,0.0886,0.0823,0.0822,0.0754,0.0879,0.0824,0.0819,0.0915,0.0917,0.0919,0.0775,0,0.0644,0.0532,0.0525,0.0478,0.0428,0.0481,0.0502,0.0559,0.0611,0.0674,0.0752,0.081,0.0825,0.0884,0.0923,0.0902,0.0905,0.0921,0.0818,0.0813,0.0757,0.0826,0.0926,0.0776,0.0776,0.0777,0.0777,0,0.0565,0.0503,0.0421,0.0448,0.0449,0.0456,0.0573,0.0595,0.0703,0.0768,0.0874,0.091,0.099,0.0982,0.1,0.1015,0.0962,0.093,0.0923,0.0847,0.0766,0.0698,0.0779,0.0779,0.0779,0.0779,0.0779,0,0.0547,0.0465,0.0414,0.04,0.0407,0.0469,0.0526,0.0642,0.0717,0.0847,0.0912,0.1005,0.1064,0.1049,0.0993,0.1014,0.0952,0.096,0.0839,0.0829,0.0871,0.0861,0.0953,0.0954,0.0954,0.0954,0.0955,0,0.0468,0.0444,0.0415,0.0387,0.044,0.0486,0.0597,0.0688,0.0809,0.0902,0.0982,0.1045,0.11,0.1063,0.0995,0.0912,0.0952,0.086,0.0818,0.0907,0.0903,0.0868,0.086,0.0949,0.095,0.0951,0.0952,0,0.0435,0.0391,0.0365,0.0385,0.0416,0.0483,0.063,0.0698,0.0839,0.0946,0.0996,0.1096,0.1092,0.104,0.099,0.0921,0.0827,0.0766,0.0796,0.0754,0.0675,0.0674,0.0654,0.0651,0.0649,0.0647,0.0646,0,0.0383,0.0343,0.0368,0.0392,0.0405,0.05,0.0554,0.0708,0.078,0.0957,0.0984,0.1045,0.108,0.0932,0.0907,0.0751,0.0735,0.0649,0.0754,0.0698,0.0658,0.0661,0.0662,0.0643,0.0642,0.0642,0.0641,0,0.0307,0.0336,0.0336,0.0361,0.0418,0.0454,0.0552,0.0612,0.0781,0.0897,0.0986,0.0986,0.0963,0.0922,0.0799,0.0689,0.0707,0.0628,0.0633,0.0731,0.0684,0.0647,0.0652,0.0634,0.0635,0.0636,0.0636,0,0.0289,0.0302,0.0317,0.0364,0.0394,0.0392,0.046,0.0544,0.0646,0.086,0.0872,0.0909,0.0987,0.0881,0.0753,0.0668,0.0678,0.0636,0.0642,0.0649,0.0716,0.0659,0.0579,0,0,0,0,0,0.0241,0.027,0.0308,0.0338,0.0345,0.0358,0.0438,0.0504,0.0662,0.0712,0.0819,0.0801,0.0759,0.0756,0.0662,0.0689,0.0621,0.057,0.0564,0.0594,0.0602,0.0681,0,0,0,0,0,0,0.0227,0.0253,0.0298,0.0284,0.0282,0.0274,0.0311,0.0406,0.0465,0.0636,0.0613,0.0735,0.0676,0.0799,0.0645,0.0634,0.0605,0.0595,0.0591,0.0589,0.0597,0.0603,0.0688,0,0,0,0,0]},{"header":{"parameterUnit":"m.s-1","parameterCategory":2,"la1":30.2991,"la2":30.254,"lo1":-89.0895,"lo2":-89.0444,"dy":0.0017,"dx":0.0017,"nx":28,"ny":28,"refTime":"2025-07-04T03:00:00:Z","depth":"4","parameterNumber":3,"parameterNumberName":"V-component_of_CURRENTS"},"data":[0,0,0,0,0,0,0,0,0,0,0,0,0,0,0,0,0,0,0,0,0,0,0,0,0,0,0,0,0,0,0,0,0,0,0,0,0,0,0,0,0,0,0,0,0,0,0,0,0,0,0,0,0,0,0,0,0,0,0.0071,0.0071,0,0.0124,0.0125,0.0126,0.0157,0.0157,0.0157,0.0157,0.0319,0.0323,0.0328,0,0,0,0,0,0,0,0,0,0,0,0,0,0.0033,0.0033,0.0071,0.0071,0.0071,0.0123,0.0125,0.0126,0.0157,0.0157,0.0157,0.0156,0.0317,0.0322,0.0328,0,0,0,0,0,0,0,0,0,0,0,0,0,0.0068,0.0034,0.0071,0.009,0.0092,0.0123,0.0125,0.0126,0.0158,0.0157,0.0157,0.0156,0.0315,0.0322,0.0329,0.0379,0,0,0.035,0.0353,0,0,0,0,0,0,0,0,0.0066,0.007,0.0087,0.0089,0.0091,0.0129,0.017,0.0214,0.0158,0.0137,0.0157,0.0156,0.0263,0.0274,0.029,0.0386,0.0393,0.035,0.0354,0.0357,0.0359,0,0,0,0,0,0,0,0.0063,0.0068,0.0096,0.0087,0.0089,0.0108,0.0113,0.0179,0.0207,0.0139,0.014,0.0139,0.0265,0.0283,0.0294,0.0396,0.035,0.0356,0.036,0.0363,0.0477,0.0476,0,0,0,0,0,0,0.0046,0.0066,0.0094,0.0097,0.0072,0.0108,0.0114,0.0121,0.0204,0.0214,0.0139,0.014,0.0271,0.0286,0.03,0.0366,0.0357,0.0364,0.0368,0.0478,0.0477,0.0476,0,0,0,0,0,0,0.0046,0.0049,0.0092,0.0078,0.0085,0.0109,0.0117,0.0122,0.0135,0.0202,0.0215,0.0145,0.0272,0.029,0.0372,0.0373,0.0367,0.0373,0.0479,0.0478,0.0476,0.0498,0,0,0,0,0,0,0.0045,0.0049,0.0055,0.0078,0.0085,0.0119,0.0117,0.0123,0.0133,0.0135,0.0213,0.0227,0.0273,0.0362,0.0379,0.0382,0.0378,0.0481,0.0478,0.0477,0.0499,0.0497,0.0496,0,0,0,0,0,0.0043,0.0056,0.0055,0.0059,0.0091,0.0119,0.0126,0.0144,0.0133,0.0152,0.0205,0.0224,0.0358,0.0369,0.0389,0.0393,0.0482,0.0479,0.0477,0.0499,0.0498,0.0496,0,0,0,0,0,0,0.0045,0.006,0.006,0.0077,0.0097,0.0123,0.014,0.0139,0.0192,0.0197,0.0251,0.0271,0.0332,0.0353,0.0362,0.0409,0.0407,0.0408,0.0416,0.0416,0.0414,0.0416,0.0384,0,0,0,0,0,0.0045,0.0058,0.0074,0.0088,0.0098,0.0115,0.0127,0.0136,0.0177,0.0197,0.0251,0.0293,0.0336,0.0371,0.0418,0.0473,0.044,0.0469,0.0468,0.0467,0.0476,0.0402,0.0395,0.0468,0.0468,0.0468,0,0,0.0045,0.0058,0.0062,0.0089,0.0107,0.0141,0.0123,0.0145,0.0175,0.0211,0.0284,0.0308,0.0348,0.0404,0.0428,0.0428,0.0428,0.0464,0.0464,0.0473,0.0398,0.0391,0.0385,0.0466,0.0466,0.0466,0,0,0.0066,0.0068,0.0092,0.0116,0.014,0.0154,0.0155,0.0187,0.0204,0.0273,0.0284,0.0306,0.0401,0.0412,0.0431,0.0446,0.0424,0.0445,0.0455,0.0383,0.0376,0.037,0.0319,0.0308,0.0443,0.0443,0.0443,0,0.0069,0.0104,0.0104,0.0145,0.0169,0.016,0.0201,0.022,0.0275,0.0289,0.0301,0.0365,0.0399,0.0427,0.0433,0.0446,0.0408,0.0468,0.0382,0.0376,0.0369,0.0318,0.0306,0.0444,0.0444,0.0444,0.0444,0,0.0116,0.0149,0.0168,0.0216,0.0242,0.0273,0.0295,0.0318,0.033,0.0342,0.0374,0.0405,0.0435,0.0428,0.0457,0.042,0.0408,0.0391,0.0392,0.0363,0.0311,0.0298,0.0445,0.0445,0.0445,0.0445,0,0,0.0117,0.0187,0.0196,0.0236,0.0283,0.0311,0.0352,0.0383,0.0391,0.0423,0.0429,0.0476,0.0456,0.0472,0.0467,0.041,0.0336,0.0391,0.0387,0.0351,0.0186,0.0207,0.0195,0.0301,0.0299,0.0298,0.0168,0,0.0159,0.024,0.0268,0.0348,0.0391,0.0405,0.0445,0.0465,0.047,0.0474,0.0451,0.0476,0.0481,0.0488,0.0429,0.0361,0.0303,0.0373,0.021,0.0206,0.0236,0.0181,0.0291,0.0159,0.0156,0.0153,0.0152,0,0.0205,0.0253,0.0339,0.0412,0.0432,0.0483,0.052,0.0554,0.0538,0.0544,0.0529,0.0507,0.0463,0.0449,0.0316,0.0361,0.0285,0.0217,0.021,0.0216,0.0202,0.0189,0.0128,0.013,0.0132,0.0133,0.0135,0,0.0211,0.0305,0.0374,0.0406,0.0484,0.0527,0.0565,0.0576,0.06,0.0581,0.0573,0.0514,0.049,0.0372,0.0263,0.0282,0.008,0.0082,0.0026,0.0027,0.0041,0.0048,-0.0034,-0.0033,-0.0033,-0.0033,-0.0032,0,0.0251,0.0308,0.0389,0.0433,0.051,0.0556,0.0621,0.0638,0.0646,0.0655,0.0613,0.058,0.0466,0.0346,0.0237,0.0093,0.0058,0.002,-0.0012,0.0052,0.0063,0.0031,0.0041,-0.0038,-0.0037,-0.0036,-0.0035,0,0.0259,0.0313,0.0395,0.0486,0.0523,0.0579,0.0681,0.0703,0.0716,0.0712,0.0713,0.0625,0.0481,0.034,0.0141,0.0079,-0.0076,-0.012,-0.0037,-0.0061,-0.0072,-0.006,-0.0191,-0.0192,-0.0192,-0.0193,-0.0193,0,0.0271,0.0317,0.0424,0.0473,0.053,0.0624,0.0676,0.074,0.076,0.0729,0.0706,0.0591,0.0514,0.0239,0.0101,-0.0112,-0.0126,-0.0186,-0.0122,-0.0073,-0.0092,-0.008,-0.0068,-0.0194,-0.0194,-0.0194,-0.0194,0,0.0295,0.0333,0.0397,0.048,0.0562,0.0646,0.0726,0.0751,0.0791,0.0795,0.0706,0.0586,0.0417,0.0236,0.008,-0.0074,-0.0138,-0.019,-0.0189,-0.013,-0.0078,-0.0093,-0.0081,-0.0195,-0.0195,-0.0195,-0.0195,0,0.0307,0.0343,0.0415,0.0493,0.0572,0.0633,0.0694,0.0725,0.076,0.0739,0.0698,0.053,0.0454,0.0251,0.0084,-0.0042,-0.0054,-0.0063,-0.0069,-0.0069,0.0019,0.0106,0.0006,0,0,0,0,0,0.0317,0.0358,0.0421,0.0503,0.0562,0.0618,0.0699,0.0746,0.0784,0.0729,0.073,0.0573,0.0363,0.0253,0.0128,0.0074,-0.0085,-0.0073,-0.01,-0.0204,-0.0202,-0.0115,0,0,0,0,0,0,0.0329,0.039,0.0417,0.0482,0.0529,0.0605,0.0662,0.0694,0.0677,0.0688,0.0565,0.0553,0.0328,0.0418,0.012,0.0082,0.0056,-0.0166,-0.0167,-0.0205,-0.0203,-0.0202,-0.0112,0,0,0,0,0]}]]